Regional Weather Roundup
Issued by NWS

Home | Current Version | Previous Version | Text Only | Print | Product List | Glossary On
Versions: 1 2 3 4 5 6 7 8 9 10 11 12 13 14 15 16 17 18 19 20 21 22 23 24 25 26 27 28 29 30 31 32 33 34 35 36 37 38 39 40 41 42 43 44 45 46 47 48 49 50
000
ASUS44 KMEG 302300
RWRTN
TENNESSEE HOURLY STATE WEATHER ROUNDUP
NATIONAL WEATHER SERVICE MEMPHIS TN
600 PM CDT TUE SEP 30 2014

TNZ002-004-019-021-049-052-054-088>092-010000-
WEST TENNESSEE

CITY           SKY/WX    TMP DP  RH WIND       PRES   REMARKS
MEMPHIS INTL   MOCLDY    85  58  39 E3        29.87R
NWS MEMPHIS      N/A     80 N/A N/A MISG        N/A
JACKSON        PTCLDY    80  63  55 CALM      29.88S
DYERSBURG      PTCLDY    82  54  36 CALM      29.88S
UNION CITY     CLEAR     82  59  44 CALM      29.87S
PARIS          CLEAR     81  55  41 CALM      29.89S
LEXINGTON      CLEAR     81  63  54 CALM      29.88S
SAVANNAH       PTCLDY    77  64  65 CALM      29.89R
$$

TNZ008-025-027-028-033-062-065-066-010000-
NORTH MIDDLE TENNESSEE

CITY           SKY/WX    TMP DP  RH WIND       PRES   REMARKS
NASHVILLE      PTCLDY    81  47  30 NE7       29.90R
CLARKSVILLE    CLEAR     80  55  42 NE5       29.88S
COOKEVILLE     CLEAR     75  59  57 CALM      29.92R
CROSSVILLE     CLEAR     73  53  49 W5        29.96R
$$

TNZ061-075-076-078-094-096-097-010000-
SOUTH MIDDLE TENNESSEE

CITY           SKY/WX    TMP DP  RH WIND       PRES   REMARKS
FAYETTEVILLE     N/A     79  55  44 CALM      29.91R
TULLAHOMA      CLEAR     75  63  64 CALM      29.92R
WINCHESTER     CLEAR     79  61  53 CALM      29.91R
SHELBYVILLE    CLEAR     82  55  39 NW5       29.91R
$$

TNZ017-018-042-046-047-010000-
NORTHEAST TENNESSEE

CITY           SKY/WX    TMP DP  RH WIND       PRES   REMARKS
TRI CITIES     PTCLDY    76  54  46 NW5       29.92R
ELIZABETHTON   CLEAR     70  57  64 CALM      29.93R
$$

TNZ012-013-036-069-073-074-010000-
CENTRAL EAST TENNESSEE

CITY           SKY/WX    TMP DP  RH WIND       PRES   REMARKS
KNOXVILLE      PTCLDY    78  56  46 NE3       29.90R
OAK RIDGE      CLEAR     77  60  55 CALM      29.92R
GATLINBURG     CLEAR     75  54  46 N3        29.91R
MORRISTOWN     CLEAR     77  55  47 NW3       29.93S
$$

TNZ083-085-099-010000-
SOUTHEAST TENNESSEE

CITY           SKY/WX    TMP DP  RH WIND       PRES   REMARKS
CHATTANOOGA    PTCLDY    82  59  45 CALM      29.89S
$$

SKY/WX REPORTED AS FAIR MEANS FEW OR NO CLOUDS BELOW
12 THOUSAND FEET.



USA.gov is the U.S. government's official web portal to all federal, state and local government web resources and services.